Location: ?????
(37.7324°N, 23.9257°E)
Time: 21:23:24
(UTC+00:00)

OAO 2 Rocket - Pass Details

Date: 29 November 2020
Orbit: 676 x 745 km, 35.0° (Epoch: 19 January)

Event Time Altitude Azimuth Distance (km) Brightness Sun altitude
Exits shadow 02:58:10 61° 153° (SSE) 788 3.6 -27.4°
Drops below altitude 10° 03:02:51 10° 95° (E) 2,169 6.9 -26.4°
Sets 03:05:18 0° 92° (E) 3,101 8.0 -26.0°
